Regional Weather Roundup
Issued by NWS

Home | Current Version | Previous Version | Graphics & Text | Print | Product List | Glossary On
Versions: 1 2 3 4 5 6 7 8 9 10 11 12 13 14 15 16 17 18 19 20 21 22 23 24 25 26 27 28 29 30 31 32 33 34 35 36 37 38 39 40 41 42 43 44 45 46 47 48 49 50
000
ASUS45 KPSR 300010
RWRAZ

ARIZONA REGIONAL HOURLY WEATHER ROUNDUP
NATIONAL WEATHER SERVICE PHOENIX AZ
500 PM MST TUE JUL 29 2014

NOTE: FAIR INDICATES FEW OR NO CLOUDS BELOW 12,000 FEET WITH NO
SIGNIFICANT WEATHER AND/OR OBSTRUCTIONS TO VISIBILITY.

AZZ001>003-036-300100-
NORTHWEST ARIZONA

CITY           SKY/WX    TMP DP  RH WIND       PRES   REMARKS
BULLHEAD CITY  SUNNY    108  50  14 S5        29.79F HX 104
KINGMAN        SUNNY     95  47  19 SW17G23   30.04F
6HR MIN TEMP:  92; 6HR MAX TEMP:  98;

$$

AZZ004>008-015-016-018-300100-
NORTH CENTRAL ARIZONA

CITY           SKY/WX    TMP DP  RH WIND       PRES   REMARKS
GRAND CANYON   PTSUNNY   81  48  31 SW16G25   30.27F
6HR MIN TEMP:  75; 6HR MAX TEMP:  83; 6HR PCP: TRACE;

WILLIAMS       PTSUNNY   77  50  38 W14G24    30.35S
PRESCOTT       MOSUNNY   88  49  25 W12       30.16F
6HR MIN TEMP:  83; 6HR MAX TEMP:  90;

FLAGSTAFF      PTSUNNY   78  49  35 SW17      30.31F
6HR MIN TEMP:  74; 6HR MAX TEMP:  79;

PAYSON         MOSUNNY   88  48  25 W9G20     30.19F
PAGE           MOSUNNY   93  46  19 NW3       30.04F
6HR MIN TEMP:  87; 6HR MAX TEMP:  95; 6HR PCP: TRACE;

$$

AZZ009>014-017-300100-
NORTHEAST ARIZONA

CITY           SKY/WX    TMP DP  RH WIND       PRES   REMARKS
WINSLOW        MOSUNNY   94  45  18 SW21G28   30.12S
6HR MIN TEMP:  82; 6HR MAX TEMP:  95;

SAINT JOHNS    PTSUNNY   86  45  23 SW15      30.19S
6HR MIN TEMP:  80; 6HR MAX TEMP:  88;

WINDOW ROCK    MOSUNNY   86  40  19 W15G21    30.25F
6HR MIN TEMP:  77; 6HR MAX TEMP:  88;

SHOW LOW       MOSUNNY   75  46  35 SW10G20   30.30F
$$

AZZ023-300100-
GREATER PHOENIX AREA

CITY           SKY/WX    TMP DP  RH WIND       PRES   REMARKS
PHOENIX        MOSUNNY  108  53  16 W13       29.82F HX 106
6HR MIN TEMP: 100; 6HR MAX TEMP: 110;

BUCKEYE          N/A    108  48  13 W10G17    29.83F HX 104
GLENDALE       MOSUNNY  108  55  18 S12G17    29.84F HX 106
LUKE AFB       NOT AVBL
6HR MIN TEMP: 100; 6HR MAX TEMP: 108;

DEER VALLEY    SUNNY    104  53  18 SW14      29.85F HX 102
6HR MIN TEMP:  97; 6HR MAX TEMP: 105;

SCOTTSDALE     SUNNY    105  53  17 W8        29.87F HX 103
6HR MIN TEMP:  98; 6HR MAX TEMP: 106;

MESA-FALCON    PTSUNNY  106  55  18 W9        29.85F HX 105
MESA-GATEWAY   MOSUNNY  106  55  18 W10       29.87F HX 105
CHANDLER       PTSUNNY  106  55  18 W6        29.84F HX 105
$$

AZZ027-028-300100-
SOUTHWEST MARICOPA COUNTY AND PINAL COUNTY

CITY           SKY/WX    TMP DP  RH WIND       PRES   REMARKS
CASA GRANDE    MOSUNNY  106  57  20 NW5       29.88S HX 105
6HR MIN TEMP:  99; 6HR MAX TEMP: 106;

GILA BEND      PTCLDY   108  50  14 W10G17    29.83F HX 104
$$

AZZ503-504-507>509-300100-
SOUTHEAST ARIZONA

CITY           SKY/WX    TMP DP  RH WIND       PRES   REMARKS
TUCSON         MOSUNNY  100  53  20 VRB6      29.97F
6HR MIN TEMP:  94; 6HR MAX TEMP: 103;

DAVIS-MONTHAN  SUNNY    100  53  21 W6        29.95F
6HR MIN TEMP:  92; 6HR MAX TEMP: 100;

RYAN FIELD       N/A    102  54  19 N10G16    29.96F HX 100
NOGALES        PTSUNNY   90  58  33 N6        30.08F
6HR MIN TEMP:  88; 6HR MAX TEMP:  94; 6HR PCP: TRACE;

SIERRA VISTA   PTSUNNY   84  57  39 W9        30.17F
                                      6HR PCP: TRACE;

DOUGLAS        PTSUNNY   90  58  33 W3        30.10F
6HR MIN TEMP:  84; 6HR MAX TEMP:  91;

SAFFORD        PTSUNNY   98  52  21 W12       29.97F
6HR MIN TEMP:  91; 6HR MAX TEMP:  98;

$$

AZZ020-021-025-026-031-300100-
SOUTHWEST ARIZONA

CITY           SKY/WX    TMP DP  RH WIND       PRES   REMARKS
YUMA           MOSUNNY  110  49  13 SW9       29.78F HX 106
6HR MIN TEMP: 102; 6HR MAX TEMP: 111;

$$

CAZ031-033-041-043-047-048-061-300100-
SOUTHERN CALIFORNIA

CITY           SKY/WX    TMP DP  RH WIND       PRES   REMARKS
DOWNTOWN L.A.  MOSUNNY   82  58  43 SW7       29.93S
6HR MIN TEMP:  81; 6HR MAX TEMP:  88;

L.A. AIRPORT   PTSUNNY   74  63  68 W13       29.96R
6HR MIN TEMP:  72; 6HR MAX TEMP:  78;

SAN DIEGO      MOSUNNY   79  63  57 W14       29.97S
6HR MIN TEMP:  79; 6HR MAX TEMP:  85;

BURBANK        MOSUNNY   90  50  25 S12       29.93F
6HR MIN TEMP:  84; 6HR MAX TEMP:  93;

ONTARIO        CLOUDY    93  55  27 W13       29.94F
6HR MIN TEMP:  87; 6HR MAX TEMP:  95;

RIVERSIDE      PTSUNNY   93  51  23 W9        29.93F
6HR MIN TEMP:  87; 6HR MAX TEMP:  96;

PALM SPRINGS   MOSUNNY  110  44  11 NW14      29.81F HX 105
6HR MIN TEMP: 102; 6HR MAX TEMP: 111;

EL CENTRO NAS  MOSUNNY  109  50  14 VRB3      29.76F HX 106
6HR MIN TEMP: 104; 6HR MAX TEMP: 112;

IMPERIAL       PTSUNNY  109  52  15 CALM      29.75F HX 107
6HR MIN TEMP: 103; 6HR MAX TEMP: 110;

BLYTHE           N/A    N/A N/A N/A MISG      29.78F
NEEDLES        MOSUNNY  108  50  14 SW13      29.81F HX 105
6HR MIN TEMP:  97; 6HR MAX TEMP: 109;

$$

NVZ020-UTZ003-300100-
SOUTHERN NEVADA-UTAH

CITY           SKY/WX    TMP DP  RH WIND       PRES   REMARKS
LAS VEGAS      MOSUNNY   99  49  18 SW14G21   29.90F
6HR MIN TEMP:  91; 6HR MAX TEMP: 101;

SALT LAKE CITY PTSUNNY   74  59  59 CALM      30.14F
6HR MIN TEMP:  66; 6HR MAX TEMP:  76; 6HR PCP:  0.09;

$$

NMZ009-TXZ055-300100-
NEW MEXICO-WEST TEXAS

CITY           SKY/WX    TMP DP  RH WIND       PRES   REMARKS
ALBUQUERQUE    PTSUNNY   75  62  64 E10       30.17F
6HR MIN TEMP:  65; 6HR MAX TEMP:  86; 6HR PCP:  0.77;

EL PASO        PTSUNNY   87  58  37 SE3       30.09S
6HR MIN TEMP:  72; 6HR MAX TEMP:  89; 6HR PCP: TRACE;

$$


........................KEY........................
SKY/WX - SKY CONDITION/WEATHER
TMP    - TEMPERATURE IN FAHRENHEIT
DP     - DEW POINT IN FAHRENHEIT
RH     - RELATIVE HUMIDITY IN PERCENT
WIND   - DIRECTION AND SPEED IN MILES PER HOUR (MPH)
VRB    - VARIABLE WIND DIRECTION
PRES   - MEAN SEA LEVEL PRESSURE IN INCHES OF MERCURY
         F - FALLING PRESSURE   R - RISING PRESSURE
         S - STEADY PRESSURE
VSB    - VISIBILITY IN MILES
HX     - HEAT INDEX IN FAHRENHEIT
WCI    - WIND CHILL INDEX IN FAHRENHEIT
TC     - TEMPERATURE IN CELSIUS WHICH IS ALSO KNOWN AS
         TEMPERATURE IN CENTIGRADE
AFB    - AIR FORCE BASE
         LUKE AFB IS LUKE AIR FORCE BASE
         DAVIS-MONTHAN IS DAVIS-MONTHAN AIR FORCE BASE
NAS    - NAVAL AIR STATION
         EL CENTRO NAS IS EL CENTRO NAVAL AIR STATION
N/A    - NOT AVAILABLE



USA.gov is the U.S. government's official web portal to all federal, state and local government web resources and services.